DW9722 Weather Reports


time (UTC)temp
F
wind
direction
speed
knots
gust
knots
rain 1hr
in
rain 24hr
in
rain mn
in
humidity
%
barometer
mb
20260507193024 52 83 0.0 0.0 0.00 0.07 0.05 1 1009.2
20260507191605 53 83 0.0 0.0 0.00 0.08 0.05 1 1009.0
20260507190059 54 83 0.0 0.0 0.00 0.08 0.05 1 1008.9
20260507184632 55 83 0.0 0.0 0.00 0.08 0.05 1 1008.8
20260507183027 56 86 0.0 0.0 0.00 0.08 0.05 6 1008.8
20260507181600 57 86 0.0 0.0 0.00 0.08 0.05 21 1008.5
20260507180116 58 86 0.0 0.0 0.00 0.08 0.05 36 1008.5
20260507173036 61 86 0.0 0.0 0.00 0.08 0.05 53 1008.3
20260507171536 61 86 0.0 0.0 0.00 0.08 0.05 57 1008.3
20260507171516 61 86 0.0 0.0 0.00 0.08 0.05 57 1008.3
20260507170124 63 51 0.0 0.0 0.00 0.08 0.05 58 1008.4
20260507164515 63 80 0.0 0.0 0.01 0.08 0.05 58 1008.5
20260507163009 64 39 0.0 0.0 0.01 0.08 0.05 56 1008.6
20260507161505 64 39 0.0 0.0 0.01 0.08 0.05 58 1008.7
20260507160042 64 96 0.0 0.0 0.01 0.08 0.05 55 1008.6
20260507154656 64 66 0.0 0.0 0.00 0.07 0.04 55 1008.7
20260507153021 64 46 0.0 0.0 0.00 0.07 0.04 58 1008.8
20260507151519 64 19 0.0 0.0 0.00 0.07 0.04 58 1008.9
20260507150110 64 66 0.0 0.0 0.00 0.07 0.04 58 1009.0
20260507144534 64 49 0.0 0.0 0.00 0.07 0.04 58 1009.1
20260507143133 65 73 0.0 0.0 0.00 0.07 0.04 58 1009.0
20260507141553 65 57 0.0 0.0 0.00 0.07 0.04 58 1009.3
20260507140049 65 66 0.0 0.0 0.01 0.07 0.04 58 1009.3
20260507134543 66 216 0.0 0.0 0.01 0.07 0.04 57 1009.6
20260507133108 65 78 0.0 0.0 0.01 0.07 0.04 58 1009.6
20260507131535 65 68 0.0 0.0 0.01 0.07 0.04 58 1009.7
20260507130155 63 76 0.0 0.0 0.00 0.06 0.03 55 1009.8
20260507124559 63 85 0.0 0.0 0.00 0.06 0.03 55 1009.8
20260507123042 62 76 0.0 0.0 0.00 0.06 0.03 54 1009.9
20260507120023 62 70 0.0 0.0 0.00 0.07 0.03 53 1010.0
20260507113033 63 82 0.0 0.0 0.00 0.07 0.03 56 1010.1
20260507111606 64 82 0.0 0.0 0.00 0.09 0.03 57 1010.2
20260507110025 66 74 0.0 0.0 0.00 0.09 0.03 48 1010.2
20260507104559 64 111 0.0 0.0 0.00 0.09 0.03 52 1010.2
20260507103033 62 39 0.0 0.0 0.00 0.09 0.03 50 1010.4
20260507101604 62 77 0.0 0.0 0.00 0.13 0.03 44 1010.4
20260507101525 62 77 0.0 0.0 0.00 0.13 0.03 44 1010.4
20260507100001 60 163 0.0 0.0 0.01 0.13 0.03 54 1010.4
20260507094508 61 80 0.0 0.0 0.01 0.13 0.03 47 1010.4
20260507093121 62 164 0.0 0.0 0.01 0.13 0.03 48 1010.4
20260507091517 63 89 0.0 0.0 0.01 0.17 0.03 33 1010.3
20260507090012 62 113 0.0 0.0 0.01 0.17 0.02 37 1010.3
20260507084534 61 170 0.0 0.0 0.01 0.17 0.02 20 1010.4
20260507083059 60 82 0.0 0.0 0.01 0.17 0.02 4 1010.4
20260507080021 57 81 0.0 0.0 0.00 0.21 0.02 1 1010.3
20260507074527 57 109 0.0 0.0 0.00 0.21 0.02 1 1010.3
20260507073100 55 69 0.0 0.0 0.00 0.21 0.02 1 1010.3
20260507073030 55 69 0.0 0.0 0.00 0.21 0.02 1 1010.3
20260507071623 53 113 0.0 0.0 0.00 0.28 0.02 1 1010.2
20260507070130 52 130 0.0 0.0 0.00 0.28 0.02 1 1010.3
20260507064608 51 163 0.0 0.0 0.00 0.28 0.02 1 1010.2
20260507063004 51 163 0.0 0.0 0.00 0.28 0.02 1 1010.0
20260507061534 51 163 0.0 0.0 0.00 0.38 0.02 1 1009.9
20260507054521 49 163 0.0 0.0 0.01 0.38 0.02 1 1009.8
20260507053015 49 163 0.0 0.0 0.01 0.38 0.02 1 1009.7
20260507051625 48 163 0.0 0.0 0.02 0.45 0.02 1 1009.6
20260507050036 48 163 0.0 0.0 0.01 0.44 0.01 1 1009.5
20260507044529 48 163 0.0 0.0 0.01 0.44 0.01 1 1009.3
20260507043125 48 163 0.0 0.0 0.01 0.44 0.01 1 1009.3
20260507024543 48 163 0.0 0.0 0.00 0.47 0.47 1 1009.1
20260507023036 48 163 0.0 0.0 0.01 0.47 0.47 1 1009.0
20260507021528 48 163 0.0 0.0 0.01 0.47 0.47 1 1008.9
20260507020024 48 163 0.0 0.0 0.01 0.47 0.47 1 1008.9
20260507014530 48 163 0.0 0.0 0.02 0.47 0.47 1 1008.8
20260507013015 48 163 0.0 0.0 0.01 0.46 0.46 1 1008.8
20260507011509 48 163 0.0 0.0 0.01 0.46 0.46 1 1008.8
20260507010006 48 163 0.0 0.0 0.01 0.46 0.46 1 1008.8
20260507004600 48 163 0.0 0.0 0.00 0.46 0.46 1 1008.8
20260507003055 48 163 0.0 0.0 0.00 0.46 0.46 1 1008.9
20260507001526 47 163 0.0 0.0 0.00 0.46 0.46 1 1008.8
20260507000026 47 163 0.0 0.0 0.00 0.46 0.46 1 1008.7
20260506234513 47 163 0.0 0.0 0.00 0.46 0.46 1 1008.7
20260506233006 47 163 0.0 0.0 0.00 0.46 0.46 1 1008.6
20260506231501 47 163 0.0 0.0 0.00 0.46 0.46 1 1008.5
20260506230057 47 163 0.0 0.0 0.00 0.46 0.46 1 1008.5
20260506224533 47 163 0.0 0.0 0.00 0.46 0.46 1 1008.4
20260506223028 47 163 0.0 0.0 0.00 0.46 0.46 1 1008.3
20260506211607 47 163 0.0 0.0 0.00 0.46 0.46 1 1008.1
20260506210107 47 163 0.0 0.0 0.00 0.46 0.46 1 1008.1
20260506203017 48 163 0.0 0.0 0.01 0.46 0.46 1 1007.9
20260506200101 50 163 0.0 0.0 0.01 0.47 0.46 1 1007.6
20260506194659 51 163 0.0 0.0 0.01 0.47 0.46 1 1007.4